Location: Janesville
(42.6830°N, 89.0190°W)
Time: 12:30:32
(UTC-05:00)

HST - Visible Passes

Search period start: 02 September 2014 00:00
Search period end: 12 September 2014 00:00
Orbit: 547 x 552 km, 28.5° (Epoch: 01 September)

Date Brightness Start Highest point End Pass type
(mag) Time Alt. Az. Time Alt. Az. Time Alt. Az.
09 Sep 3.1 19:59:05 10° S 19:59:42 10° S 20:00:19 10° SSE visible
10 Sep 3.1 19:51:24 10° SSW 19:52:34 11° S 19:53:44 10° SSE visible
11 Sep 3.1 19:44:05 10° SSW 19:45:26 11° S 19:46:47 10° SSE visible
